FENGYUN 1C DEB

Satellite information

Favourite Embed

Satellite Type and Status

DEBRISIN ORBIT

Key statistics

Satellite FENGYUN 1C DEB at a glance.

Uptime

9721

Days in orbit

Revolutions

≈ 13.4

Per day

Orbit

SSO

Sun Synchronous Orbit

Inclination

97.3

Latest

Satellite identification and parameters

Extended collection of information and parameters for FENGYUN 1C DEB.

Object identification

Identified? True

Debris? True

Object name: FENGYUN 1C DEB

International designator: 1999-025CZR

Object number (NORAD): 32372

Object ID (CCSDS): 32372

Country: PEOPLES REPUBLIC OF CHINA (PRC)

Current information (Y/N): Y

RCS size: SMALL

Orbital parameters

Period: 107.835 minutes

Inclination: 97.3163 deg

SMA: 7504.722 km

Apoapsis: 1470.813 km

Periapsis: 782.36 km

RAAN: 226.9338 deg

Eccentricy: 0.04586798

Argument of periapsis: 43.4714 deg

Mean anomaly: 320.164 deg

Mean motion: 13.35367723 rev/day

Mean motion (dot): 0.00003249 rev/day2

B* drag term: 0.003543376 1/REarth

Two-line elements (TLE)

Creation date: Dec. 11, 2025, 7:14 p.m.

Reference frame: TEME

Reference center: EARTH

Epoch: Dec. 11, 2025, 11:21 a.m. UTC

TLE line 0: 0 FENGYUN 1C DEB

TLE line 1: 1 32372U 99025CZR 25345.47342720 .00003249 00000-0 35434-2 0 9999

TLE line 2: 2 32372 97.3163 226.9338 0458680 43.4714 320.1640 13.35367723601233

Live tracking on map

Real-time ground track for satellite FENGYUN 1C DEB.

In-orbit conjunctions

A list of the most updated potential collisions computed for object FENGYUN 1C DEB.

Target Orbit TCA Probability of collision Miss distance Type
SL-8 R/B LEO 2024-10-30 03:31:04 0.0001270221 238.0 (m) ROCKET BODY

Associated space launch

Chinese polar orbiting meteorological satellite

FENGYUN 1C DEB was lifted into orbit during the mission ‘Long March 4B | Feng Yun 1C’, on board a Long March 4B space rocket.

The launch took place on May 10, 1999, 1:33 a.m. from Launch Complex 7.

For more information about the launch, click the button.

Launch to space Long March 4B | Feng Yun 1C
Long March 4B | Feng Yun 1C

Agency: N/A

Status: Launch Successful

Launch date: May 10, 1999, 1:33 a.m. UTC

Rocket: Long March 4B

Launch pad: Launch Complex 7

Location: Taiyuan Satellite Launch Center, People's Republic of China

...

Latest news about this satellite

There are no fresh news available about this satellite. Check back as we update our databases every day.


Newsletter sign-up

Weekly statistics, charts and insights to help you stay on top of the space industry.